Location: Bidart
(43.4376°N, 1.5913°W)
Time: 11:45:31
(UTC+00:00)

USA 229 DEB - Pass Details

Date: 21 April 2026
Orbit: 844 x 1364 km, 63.4° (Epoch: 10 January)

Event Time Altitude Azimuth Distance (km) Brightness Sun altitude
Rises 00:39:28 0° 323° (NW) 4,010 7.2 -34.2°
Reaches altitude 10° 00:42:04 10° 323° (NW) 3,115 6.5 -34.1°
Enters shadow 00:49:20 83° 306° (NW) 1,291 3.9 -33.8°
